Location: Newark
(13.8117°N, 3.6025°W)
Time: 18:46:35
(UTC+00:00)

Explorer 11/Cluster Stage 4 - Pass Details

Date: 31 August 2019
Orbit: 467 x 1259 km, 28.8° (Epoch: 15 October)

Event Time Altitude Azimuth Distance (km) Brightness Sun altitude
Rises 15:22:25 0° 278° (W) 4,194 11.1 43.8°
Reaches altitude 10° 15:25:58 10° 267° (W) 3,195 10.8 42.9°
Maximum altitude 15:32:20 26° 215° (SW) 2,120 9.5 41.4°
Drops below altitude 10° 15:38:08 10° 161° (SSE) 2,877 9.4 39.9°
Sets 15:41:11 0° 149° (SSE) 3,703 9.8 39.2°
